EA4BPO Weather Reports


time (UTC)temp
C
wind
direction
speed
KPH
gust
KPH
rain 1hr
cm
rain 24hr
cm
rain mn
cm
humidity
%
barometer
mb
20260507100504 15 92 4.8 14.5 0.00 0.00 0.00 69 1011.3
20260507100005 15 66 4.8 14.5 0.00 0.00 0.00 68 1011.1
20260507095504 15 75 3.2 9.7 0.00 0.00 0.00 70 1010.8
20260507095004 15 84 3.2 9.7 0.00 0.00 0.00 69 1010.7
20260507094525 14 80 4.8 11.3 0.00 0.00 0.00 70 1011.1
20260507094004 14 85 3.2 11.3 0.00 0.00 0.00 70 1010.8
20260507093504 15 77 4.8 12.9 0.00 0.00 0.00 69 1011.1
20260507093004 13 70 6.4 12.9 0.00 0.00 0.00 72 1011.1
20260507092504 13 65 4.8 12.9 0.00 0.00 0.00 71 1011.1
20260507092004 13 71 3.2 11.3 0.00 0.00 0.00 71 1011.1
20260507091504 14 83 3.2 11.3 0.00 0.00 0.00 69 1011.2
20260507091004 15 89 3.2 12.9 0.00 0.00 0.00 68 1011.1
20260507090504 14 77 3.2 12.9 0.00 0.00 0.00 70 1011.1
20260507090005 13 67 4.8 16.1 0.00 0.00 0.00 72 1011.1
20260507085504 13 61 6.4 16.1 0.00 0.00 0.00 72 1010.7
20260507085004 13 52 6.4 12.9 0.00 0.00 0.00 73 1011.0
20260507084504 13 48 4.8 12.9 0.00 0.00 0.00 72 1011.1
20260507084004 13 46 4.8 14.5 0.00 0.00 0.00 71 1010.8
20260507083504 13 52 6.4 14.5 0.00 0.00 0.00 73 1010.8
20260507083004 13 56 4.8 11.3 0.00 0.00 0.00 72 1011.0
20260507082504 13 62 4.8 11.3 0.00 0.00 0.00 72 1010.8
20260507082004 12 64 4.8 12.9 0.00 0.00 0.00 74 1011.0
20260507081525 12 62 4.8 12.9 0.00 0.00 0.00 75 1011.2
20260507081004 12 57 4.8 11.3 0.00 0.00 0.00 75 1011.1
20260507080525 11 56 4.8 11.3 0.00 0.00 0.00 76 1011.1
20260507080004 11 52 4.8 11.3 0.00 0.00 0.00 77 1011.1
20260507075525 12 45 3.2 11.3 0.00 0.00 0.00 76 1011.4
20260507075025 11 44 3.2 14.5 0.00 0.00 0.00 77 1010.8
20260507074525 11 37 4.8 16.1 0.00 0.00 0.00 77 1010.7
20260507074025 11 35 6.4 16.1 0.00 0.00 0.00 77 1011.0
20260507073504 11 40 6.4 14.5 0.00 0.00 0.00 77 1010.6
20260507073004 11 39 4.8 12.9 0.00 0.00 0.00 76 1010.7
20260507072504 11 32 6.4 12.9 0.00 0.00 0.00 76 1010.7
20260507072004 11 35 6.4 16.1 0.00 0.00 0.00 77 1010.7
20260507071504 11 55 6.4 16.1 0.00 0.00 0.00 77 1010.8
20260507071025 11 62 6.4 12.9 0.00 0.00 0.00 77 1010.7
20260507070504 11 60 6.4 12.9 0.00 0.00 0.00 77 1011.1
20260507070025 11 52 4.8 12.9 0.00 0.00 0.00 77 1011.0
20260507065504 11 48 4.8 12.9 0.00 0.00 0.00 77 1010.7
20260507065025 11 58 6.4 12.9 0.00 0.00 0.00 77 1010.7
20260507064525 11 55 4.8 12.9 0.00 0.00 0.00 77 1010.8
20260507064004 11 50 3.2 11.3 0.00 0.00 0.00 77 1010.6
20260507063504 11 51 4.8 11.3 0.00 0.00 0.00 77 1010.5
20260507063004 11 44 4.8 12.9 0.00 0.00 0.00 78 1010.4
20260507062504 11 37 4.8 12.9 0.00 0.00 0.00 78 1010.3
20260507062025 11 40 4.8 12.9 0.00 0.00 0.00 78 1010.4
20260507061504 11 39 4.8 11.3 0.00 0.00 0.00 78 1010.3
20260507061004 11 45 4.8 11.3 0.00 0.00 0.00 78 1010.6
20260507060504 11 48 4.8 14.5 0.00 0.00 0.00 78 1010.3
20260507060025 11 38 6.4 14.5 0.00 0.00 0.00 78 1010.2
20260507055504 11 28 6.4 11.3 0.00 0.00 0.00 79 1010.4
20260507055004 11 27 6.4 11.3 0.00 0.00 0.00 79 1010.4
20260507054504 11 24 6.4 11.3 0.00 0.00 0.00 79 1010.1
20260507054004 11 22 6.4 12.9 0.00 0.00 0.00 79 1010.0
20260507053525 11 27 6.4 12.9 0.00 0.00 0.00 79 1009.9
20260507053005 11 25 6.4 12.9 0.00 0.00 0.00 79 1009.9
20260507052504 11 23 6.4 11.3 0.00 0.00 0.00 79 1009.9
20260507052025 11 23 6.4 12.9 0.00 0.00 0.00 79 1009.8
20260507051504 10 21 6.4 12.9 0.00 0.00 0.00 79 1010.1
20260507051004 10 22 6.4 11.3 0.00 0.00 0.00 79 1010.0
20260507050504 10 22 6.4 11.3 0.00 0.00 0.00 79 1010.1
20260507050005 10 19 6.4 11.3 0.00 0.00 0.00 79 1009.9
20260507045504 10 17 4.8 9.7 0.00 0.00 0.00 79 1009.9
20260507045004 10 19 4.8 9.7 0.00 0.00 0.00 79 1010.1
20260507044525 10 18 4.8 9.7 0.00 0.00 0.00 79 1009.9
20260507044004 10 19 4.8 11.3 0.00 0.00 0.00 79 1010.0
20260507043504 10 25 4.8 11.3 0.00 0.00 0.00 79 1010.0
20260507043004 10 29 4.8 11.3 0.00 0.00 0.00 79 1009.9
20260507042504 10 25 4.8 11.3 0.00 0.00 0.00 79 1010.0
20260507042004 10 23 6.4 12.9 0.00 0.00 0.00 78 1010.0
20260507041504 10 21 6.4 12.9 0.00 0.00 0.00 78 1010.1
20260507041004 10 23 6.4 14.5 0.00 0.00 0.00 78 1010.0
20260507040504 10 27 6.4 14.5 0.00 0.00 0.00 78 1009.8
20260507040025 10 28 6.4 12.9 0.00 0.00 0.00 78 1009.9
20260507035504 10 30 6.4 12.9 0.00 0.00 0.00 78 1010.0
20260507035004 10 27 6.4 11.3 0.00 0.00 0.00 77 1010.1
20260507034525 10 27 4.8 11.3 0.00 0.00 0.00 77 1009.9
20260507034004 10 25 4.8 11.3 0.00 0.00 0.00 77 1010.3
20260507033504 10 22 6.4 11.3 0.00 0.00 0.00 76 1010.1
20260507033025 10 24 4.8 11.3 0.00 0.00 0.00 76 1010.0
20260507032504 10 25 4.8 11.3 0.00 0.00 0.00 76 1010.0
20260507032004 11 19 4.8 11.3 0.00 0.00 0.00 75 1009.9
20260507031504 11 16 4.8 11.3 0.00 0.00 0.00 75 1010.1
20260507031004 11 13 4.8 12.9 0.00 0.00 0.00 74 1010.1
20260507030504 11 7 4.8 12.9 0.00 0.00 0.00 74 1010.0
20260507030004 11 9 4.8 11.3 0.00 0.00 0.00 74 1010.0
20260507025525 11 22 4.8 11.3 0.00 0.00 0.00 73 1009.9
20260507025025 11 27 4.8 12.9 0.00 0.00 0.00 73 1009.9
20260507024504 11 26 6.4 12.9 0.00 0.00 0.00 73 1010.0
20260507024004 11 25 6.4 11.3 0.00 0.00 0.00 72 1010.0
20260507023504 11 21 4.8 11.3 0.00 0.00 0.00 72 1009.8
20260507023004 11 28 4.8 9.7 0.00 0.00 0.00 72 1010.0
20260507022504 11 36 4.8 9.7 0.00 0.00 0.00 72 1010.0
20260507022004 11 35 3.2 9.7 0.00 0.00 0.00 71 1010.1
20260507021504 11 36 3.2 9.7 0.00 0.00 0.00 71 1010.1
20260507021004 11 35 3.2 9.7 0.00 0.00 0.00 70 1009.8
20260507020504 11 33 3.2 9.7 0.00 0.00 0.00 69 1009.9
20260507020004 11 38 4.8 9.7 0.00 0.00 0.00 69 1009.9
20260507015504 11 48 4.8 11.3 0.00 0.00 0.00 69 1009.9
20260507015004 12 51 4.8 11.3 0.00 0.00 0.00 69 1009.9
20260507014504 12 48 4.8 11.3 0.00 0.00 0.00 69 1009.9
20260507014004 12 52 4.8 9.7 0.00 0.00 0.00 68 1009.9
20260507013525 11 49 6.4 12.9 0.00 0.00 0.00 68 1009.8
20260507013004 11 46 6.4 12.9 0.00 0.00 0.00 67 1009.9
20260507012504 11 46 4.8 11.3 0.00 0.00 0.00 66 1010.0
20260507012004 11 47 4.8 11.3 0.00 0.00 0.00 66 1009.9
20260507010504 11 48 6.4 12.9 0.00 0.00 0.00 65 1009.9
20260507010025 11 44 6.4 14.5 0.00 0.00 0.00 65 1009.9
20260507005525 11 45 8.0 14.5 0.00 0.00 0.00 65 1010.2
20260507005004 11 49 6.4 11.3 0.00 0.00 0.00 65 1010.1
20260507004504 11 44 6.4 12.9 0.00 0.00 0.00 65 1010.2
20260507004004 11 44 6.4 14.5 0.00 0.00 0.00 65 1010.1
20260507003504 11 54 6.4 14.5 0.00 0.00 0.00 64 1010.2
20260507003004 11 59 6.4 14.5 0.00 0.00 0.00 64 1010.3
20260507002504 11 55 6.4 12.9 0.00 0.00 0.00 63 1010.2
20260507002004 12 50 8.0 17.7 0.00 0.00 0.00 62 1010.2
20260507001525 12 51 8.0 17.7 0.00 0.00 0.00 61 1010.2
20260507001004 12 58 8.0 17.7 0.00 0.00 0.00 60 1010.2
20260507000505 12 56 8.0 17.7 0.00 0.00 0.00 60 1010.6
20260507000004 12 44 6.4 14.5 0.00 0.00 0.00 59 1010.0
20260506235504 12 39 6.4 12.9 0.00 0.00 0.00 58 1010.1
20260506235004 12 35 6.4 12.9 0.00 0.00 0.00 58 1009.8
20260506234504 12 29 6.4 12.9 0.00 0.00 0.00 57 1009.9
20260506234004 12 30 6.4 12.9 0.00 0.00 0.00 57 1010.0
20260506233504 12 33 6.4 12.9 0.00 0.00 0.00 56 1010.0
20260506233004 13 36 6.4 14.5 0.00 0.00 0.00 55 1009.9
20260506232504 13 34 8.0 14.5 0.00 0.00 0.00 55 1009.9
20260506232004 13 27 8.0 12.9 0.00 0.00 0.00 54 1009.7
20260506231525 13 27 6.4 12.9 0.00 0.00 0.00 53 1009.7
20260506231004 13 28 6.4 12.9 0.00 0.00 0.00 53 1009.7
20260506230504 13 30 6.4 11.3 0.00 0.00 0.00 52 1009.8
20260506230004 13 31 6.4 12.9 0.00 0.00 0.00 50 1009.8
20260506225504 13 32 6.4 12.9 0.00 0.00 0.00 49 1009.7
20260506225004 14 38 4.8 12.9 0.00 0.00 0.00 47 1009.8
20260506224504 14 37 4.8 9.7 0.00 0.00 0.00 46 1009.9
20260506224004 14 44 4.8 9.7 0.00 0.00 0.00 46 1009.8
20260506223504 14 49 4.8 9.7 0.00 0.00 0.00 46 1009.6
20260506223004 14 49 4.8 9.7 0.00 0.00 0.00 44 1009.8
20260506222525 15 53 4.8 9.7 0.00 0.00 0.00 42 1009.8
20260506222025 15 50 4.8 9.7 0.00 0.00 0.00 42 1009.8
20260506221504 15 47 4.8 11.3 0.00 0.00 0.00 42 1009.8
20260506221004 15 47 3.2 6.4 0.00 0.00 0.00 42 1009.6
20260506220504 15 48 3.2 6.4 0.00 0.00 0.00 42 1009.6
20260506220004 15 50 3.2 6.4 0.00 0.00 0.00 41 1009.9
20260506215504 15 54 4.8 6.4 0.00 0.00 0.00 41 1010.0
20260506215004 15 51 3.2 6.4 0.00 0.00 0.00 41 1009.7
20260506214504 15 49 3.2 6.4 0.00 0.00 0.00 40 1010.1
20260506214004 15 48 1.6 4.8 0.00 0.00 0.00 41 1009.7
20260506213504 15 44 1.6 4.8 0.00 0.00 0.00 41 1009.7
20260506213004 15 48 1.6 3.2 0.00 0.00 0.00 41 1009.8
20260506212525 15 47 1.6 3.2 0.00 0.00 0.00 40 1009.8
20260506212004 15 41 1.6 4.8 0.00 0.00 0.00 40 1009.8
20260506211504 15 43 3.2 4.8 0.00 0.00 0.00 39 1009.8
20260506211004 16 53 3.2 4.8 0.00 0.00 0.00 38 1009.9
20260506210505 16 59 3.2 4.8 0.00 0.00 0.00 38 1009.8
20260506210004 16 60 1.6 3.2 0.00 0.00 0.00 37 1010.0
20260506205525 16 60 1.6 3.2 0.00 0.00 0.00 37 1009.8
20260506205004 16 67 1.6 3.2 0.00 0.00 0.00 37 1009.6
20260506204504 16 71 1.6 3.2 0.00 0.00 0.00 36 1009.7
20260506204004 16 70 1.6 3.2 0.00 0.00 0.00 37 1009.9
20260506203504 16 73 1.6 3.2 0.00 0.00 0.00 37 1009.8
20260506203004 16 77 1.6 3.2 0.00 0.00 0.00 37 1009.6
20260506202504 16 78 1.6 3.2 0.00 0.00 0.00 38 1009.7
20260506202004 16 81 1.6 1.6 0.00 0.00 0.00 38 1009.7
20260506201504 16 76 1.6 3.2 0.00 0.00 0.00 39 1009.7
20260506201025 16 72 1.6 3.2 0.00 0.00 0.00 38 1009.6
20260506200504 16 71 1.6 3.2 0.00 0.00 0.00 37 1009.5
20260506200004 17 72 1.6 3.2 0.00 0.00 0.00 37 1009.5
20260506195525 17 75 1.6 1.6 0.00 0.00 0.00 36 1009.7
20260506195004 17 76 1.6 3.2 0.00 0.00 0.00 37 1009.8
20260506194504 17 76 1.6 3.2 0.00 0.00 0.00 35 1009.7
20260506194004 17 86 0.0 3.2 0.00 0.00 0.00 35 1009.5
20260506193525 17 88 1.6 3.2 0.00 0.00 0.00 35 1009.5
20260506193025 17 81 1.6 3.2 0.00 0.00 0.00 34 1009.4
20260506192504 17 75 1.6 3.2 0.00 0.00 0.00 35 1009.2
20260506192004 17 89 0.0 1.6 0.00 0.00 0.00 35 1009.2
20260506191525 17 89 0.0 1.6 0.00 0.00 0.00 35 1009.6
20260506191004 17 94 0.0 1.6 0.00 0.00 0.00 35 1009.5
20260506190504 17 127 0.0 1.6 0.00 0.00 0.00 34 1009.2
20260506190025 17 142 0.0 1.6 0.00 0.00 0.00 34 1009.1
20260506185504 18 172 0.0 3.2 0.00 0.00 0.00 33 1009.4
20260506185004 18 218 1.6 3.2 0.00 0.00 0.00 33 1009.1
20260506184525 18 312 0.0 3.2 0.00 0.00 0.00 31 1009.4
20260506184004 19 236 0.0 4.8 0.00 0.00 0.00 31 1009.1
20260506183504 18 210 1.6 4.8 0.00 0.00 0.00 32 1009.2
20260506183005 18 183 1.6 4.8 0.00 0.00 0.00 32 1009.1
20260506182504 19 196 1.6 3.2 0.00 0.00 0.00 31 1009.2
20260506182004 19 180 1.6 3.2 0.00 0.00 0.00 31 1009.0
20260506181504 18 95 1.6 3.2 0.00 0.00 0.00 31 1009.4
20260506181004 18 11 1.6 6.4 0.00 0.00 0.00 32 1009.2
20260506180504 18 329 3.2 6.4 0.00 0.00 0.00 32 1009.1
20260506180005 18 335 1.6 6.4 0.00 0.00 0.00 32 1009.5
20260506175504 19 356 1.6 4.8 0.00 0.00 0.00 32 1009.2
20260506175004 19 329 1.6 4.8 0.00 0.00 0.00 31 1009.4
20260506174504 19 324 1.6 4.8 0.00 0.00 0.00 31 1009.5
20260506174004 19 293 1.6 4.8 0.00 0.00 0.00 31 1009.4
20260506173504 20 233 1.6 4.8 0.00 0.00 0.00 31 1009.4
20260506173004 20 218 1.6 4.8 0.00 0.00 0.00 30 1009.4
20260506172504 19 133 1.6 6.4 0.00 0.00 0.00 30 1009.4
20260506172004 18 101 3.2 9.7 0.00 0.00 0.00 33 1009.2
20260506171504 18 94 4.8 9.7 0.00 0.00 0.00 32 1009.5
20260506171004 18 94 3.2 6.4 0.00 0.00 0.00 32 1009.5
20260506170504 19 112 1.6 6.4 0.00 0.00 0.00 32 1009.6
20260506170004 20 139 1.6 3.2 0.00 0.00 0.00 31 1009.4
20260506165504 20 152 1.6 4.8 0.00 0.00 0.00 32 1009.5
20260506165004 19 165 1.6 4.8 0.00 0.00 0.00 31 1009.4
20260506164504 20 193 1.6 4.8 0.00 0.00 0.00 30 1009.7
20260506164004 19 13 1.6 4.8 0.00 0.00 0.00 31 1009.7
20260506163504 17 40 1.6 6.4 0.00 0.00 0.00 33 1010.0
20260506163004 17 75 3.2 6.4 0.00 0.00 0.00 34 1009.6
20260506162504 17 69 3.2 6.4 0.00 0.00 0.00 34 1009.8
20260506162004 18 55 3.2 9.7 0.00 0.00 0.00 34 1009.8
20260506161504 17 95 3.2 9.7 0.00 0.00 0.00 33 1009.8
20260506161025 18 158 1.6 6.4 0.00 0.00 0.00 34 1009.8
20260506160504 18 153 3.2 4.8 0.00 0.00 0.00 34 1009.8
20260506160004 18 80 4.8 11.3 0.00 0.00 0.00 33 1009.6
20260506155525 17 64 4.8 11.3 0.00 0.00 0.00 34 1009.9
20260506155004 19 27 3.2 9.7 0.00 0.00 0.00 33 1009.9
20260506154504 18 36 3.2 6.4 0.00 0.00 0.00 33 1009.8
20260506154004 19 308 1.6 6.4 0.00 0.00 0.00 33 1010.0
20260506153525 18 306 4.8 12.9 0.00 0.00 0.00 34 1009.9
20260506153004 17 332 4.8 12.9 0.00 0.00 0.00 34 1010.1
20260506152504 18 166 3.2 6.4 0.00 0.00 0.00 33 1010.0
20260506152004 18 253 3.2 6.4 0.00 0.00 0.00 34 1010.1
20260506151525 18 309 3.2 9.7 0.00 0.00 0.00 34 1010.1
20260506151004 17 343 4.8 12.9 0.00 0.00 0.00 35 1010.0
20260506150504 17 19 4.8 12.9 0.00 0.00 0.00 35 1010.1
20260506150004 18 51 3.2 12.9 0.00 0.00 0.00 35 1010.3
20260506145504 17 28 3.2 9.7 0.00 0.00 0.00 36 1010.3
20260506145004 17 43 3.2 9.7 0.00 0.00 0.00 37 1010.2
20260506144504 17 75 3.2 9.7 0.00 0.00 0.00 36 1010.5
20260506144004 18 162 3.2 12.9 0.00 0.00 0.00 35 1010.5
20260506143504 17 158 4.8 12.9 0.00 0.00 0.00 36 1010.5
20260506143004 18 147 6.4 16.1 0.00 0.00 0.00 36 1010.4
20260506142504 18 135 6.4 16.1 0.00 0.00 0.00 36 1010.5
20260506142004 18 48 4.8 11.3 0.00 0.00 0.00 36 1010.7
20260506141504 18 85 3.2 11.3 0.00 0.00 0.00 36 1010.7
20260506141004 18 126 4.8 11.3 0.00 0.00 0.00 35 1010.7
20260506140525 18 112 6.4 12.9 0.00 0.00 0.00 38 1010.8
20260506140004 17 88 6.4 12.9 0.00 0.00 0.00 37 1010.7
20260506135504 17 83 6.4 14.5 0.00 0.00 0.00 37 1011.2
20260506135004 17 85 4.8 14.5 0.00 0.00 0.00 38 1011.0
20260506134504 19 217 1.6 6.4 0.00 0.00 0.00 35 1011.1
20260506134004 17 305 3.2 9.7 0.00 0.00 0.00 36 1011.1
20260506133504 17 343 4.8 9.7 0.00 0.00 0.00 37 1011.1
20260506133025 17 352 4.8 9.7 0.00 0.00 0.00 37 1011.3
20260506132504 18 287 4.8 9.7 0.00 0.00 0.00 36 1011.4
20260506132025 17 278 4.8 9.7 0.00 0.00 0.00 39 1011.4
20260506131504 17 291 4.8 9.7 0.00 0.00 0.00 40 1011.5
20260506131004 17 326 4.8 9.7 0.00 0.00 0.00 40 1011.5
20260506130504 17 330 3.2 6.4 0.00 0.00 0.00 41 1011.5
20260506130025 17 239 3.2 9.7 0.00 0.00 0.00 40 1011.3
20260506125525 17 229 3.2 11.3 0.00 0.00 0.00 40 1011.7
20260506125004 17 240 3.2 11.3 0.00 0.00 0.00 41 1011.6
20260506124504 16 313 4.8 12.9 0.00 0.00 0.00 41 1011.5
20260506124004 16 2 4.8 12.9 0.00 0.00 0.00 43 1011.6
20260506123504 17 308 4.8 12.9 0.00 0.00 0.00 43 1011.7
20260506123004 15 290 4.8 11.3 0.00 0.00 0.00 44 1011.7
20260506122504 16 347 3.2 11.3 0.00 0.00 0.00 43 1011.9
20260506122025 16 345 4.8 11.3 0.00 0.00 0.00 44 1011.9
20260506121504 15 334 4.8 9.7 0.00 0.00 0.00 45 1011.9
20260506121004 15 335 4.8 9.7 0.00 0.00 0.00 45 1012.1
20260506120504 15 21 4.8 9.7 0.00 0.00 0.00 45 1012.0
20260506120004 16 66 4.8 11.3 0.00 0.00 0.00 44 1012.2
20260506115504 16 54 4.8 11.3 0.00 0.00 0.00 44 1012.2
20260506115004 16 27 4.8 12.9 0.00 0.00 0.00 46 1012.2
20260506114504 15 34 4.8 12.9 0.00 0.00 0.00 46 1012.5
20260506114004 16 163 3.2 9.7 0.00 0.00 0.00 45 1012.1
20260506113525 16 170 4.8 12.9 0.00 0.00 0.00 46 1012.1
20260506113004 15 135 4.8 12.9 0.00 0.00 0.00 48 1012.6
20260506112504 14 64 3.2 11.3 0.00 0.00 0.00 48 1012.5
20260506112004 15 66 4.8 11.3 0.00 0.00 0.00 48 1012.3
20260506111504 15 78 4.8 12.9 0.00 0.00 0.00 47 1012.5
20260506111004 14 85 4.8 12.9 0.00 0.00 0.00 48 1012.5
20260506110504 15 129 3.2 12.9 0.00 0.00 0.00 48 1012.7
20260506110025 14 136 3.2 9.7 0.00 0.00 0.00 49 1012.5
20260506105525 14 60 4.8 14.5 0.00 0.00 0.00 50 1012.5
20260506105004 15 101 4.8 14.5 0.00 0.00 0.00 48 1012.5
20260506104504 15 149 4.8 11.3 0.00 0.00 0.00 48 1012.6
20260506104025 15 108 6.4 16.1 0.00 0.00 0.00 49 1012.6
20260506103525 14 78 6.4 16.1 0.00 0.00 0.00 48 1012.7
20260506103004 15 68 4.8 12.9 0.00 0.00 0.00 49 1012.6
20260506102504 15 38 3.2 14.5 0.00 0.00 0.00 49 1012.7
20260506102025 14 38 4.8 14.5 0.00 0.00 0.00 50 1012.6
20260506101504 15 43 3.2 14.5 0.00 0.00 0.00 49 1012.9
20260506101004 14 67 4.8 11.3 0.00 0.00 0.00 52 1012.7